Weather History for KACK - April, 2014

Change the Weather History Date:

Tuesday, April 22, 2014

  Actual Average Record
Temperature  
Mean Temperature 50 °F -  
Max Temperature 57 °F 52 °F 68 °F (1960)
Min Temperature 43 °F 39 °F 30 °F (2006)
Degree Days  
Heating Degree Days 15    
Moisture  
Dew Point 44 °F    
Average Humidity 80    
Maximum Humidity 90    
Minimum Humidity 64    
Precipitation  
Precipitation 0.00 in - - ()
Sea Level Pressure  
Sea Level Pressure 29.70 in    
Wind  
Wind Speed 5 mph (SSW)    
Max Wind Speed 10 mph    
Max Gust Speed -    
Visibility 10 miles    
Events Rain    
Averages and records for this station are not official NWS values.
T = Trace of Precipitation, MM = Missing Value Source: NWS Daily Summary

Daily Weather History Graph

Daily Weather History Graph

Search for Another Location

Airport or City:

Trip Planner

Search our weather history database for the weather conditions in past years. The results will help you decide how hot, cold, wet, or windy it might be!

Date:

Astronomy

Apr. 22, 2014 Rise Set
Actual Time 5:50 AM EDT 7:27 PM EDT
Civil Twilight 5:21 AM EDT 7:57 PM EDT
Nautical Twilight 4:45 AM EDT 8:32 PM EDT
Astronomical Twilight 4:08 AM EDT 9:10 PM EDT
Moon 1:41 AM EDT (4/22) 12:21 PM EDT (4/22)
Length of Visible Light 14h 36m
Length of Day
13h 37m
Last Quarter, 46% of the Moon is Illuminated
Apr 22
Last Quarter
Apr 29
New
May 6
First Quarter
May 14
Full
May 21
Last Quarter

Hourly Weather History & Observations

Time (EDT) Temp. Windchill Dew Point Humidity Pressure Visibility Wind Dir Wind Speed Gust Speed Precip Events Conditions
12:53 AM 46.0 °F 44.8 °F 42.1 °F 86% 29.88 in 10.0 mi SSW 3.5 mph - N/A   Scattered Clouds
1:53 AM 45.0 °F - 41.0 °F 86% 29.86 in 10.0 mi Calm Calm - N/A   Clear
2:53 AM 45.0 °F 43.5 °F 41.0 °F 86% 29.83 in 9.0 mi SSW 3.5 mph - N/A   Clear
3:53 AM 45.0 °F 42.6 °F 41.0 °F 86% 29.82 in 10.0 mi SSW 4.6 mph - N/A   Clear
4:53 AM 45.0 °F 42.6 °F 42.1 °F 90% 29.80 in 10.0 mi SW 4.6 mph - N/A   Clear
5:53 AM 43.0 °F - 39.9 °F 89% 29.79 in 10.0 mi Calm Calm - N/A   Clear
6:53 AM 46.9 °F - 44.1 °F 90% 29.79 in 10.0 mi WSW 3.5 mph - N/A   Clear
7:53 AM 50.0 °F - 46.0 °F 86% 29.78 in 10.0 mi SW 4.6 mph - N/A   Clear
8:53 AM 53.1 °F - 44.1 °F 71% 29.76 in 10.0 mi SSW 5.8 mph - N/A   Clear
9:53 AM 54.0 °F - 44.1 °F 69% 29.75 in 10.0 mi SSW 8.1 mph - N/A   Clear
10:53 AM 55.9 °F - 44.1 °F 64% 29.74 in 10.0 mi SW 8.1 mph - N/A   Clear
11:53 AM 55.9 °F - 44.1 °F 64% 29.71 in 10.0 mi SSW 10.4 mph - N/A   Clear
12:53 PM 57.0 °F - 45.0 °F 64% 29.69 in 10.0 mi South 10.4 mph - N/A   Clear
1:53 PM 55.9 °F - 45.0 °F 67% 29.68 in 10.0 mi SW 10.4 mph - N/A   Clear
2:53 PM 54.0 °F - 44.1 °F 69% 29.66 in 10.0 mi SW 10.4 mph - N/A   Clear
3:53 PM 53.1 °F - 45.0 °F 74% 29.62 in 10.0 mi SSW 9.2 mph - N/A   Clear
4:53 PM 51.1 °F - 44.1 °F 77% 29.61 in 10.0 mi SSW 9.2 mph - N/A   Clear
5:53 PM 51.1 °F - 45.0 °F 80% 29.60 in 10.0 mi SSW 9.2 mph - N/A   Clear
6:53 PM 48.9 °F - 44.1 °F 83% 29.59 in 10.0 mi SSW 8.1 mph - N/A   Clear
7:53 PM 48.0 °F - 44.1 °F 86% 29.59 in 10.0 mi South 6.9 mph - N/A   Clear
8:53 PM 48.9 °F - 45.0 °F 86% 29.58 in 10.0 mi South 9.2 mph - N/A   Clear
9:53 PM 48.9 °F - 45.0 °F 86% 29.57 in 10.0 mi South 6.9 mph - N/A   Clear
10:53 PM 48.9 °F - 46.0 °F 90% 29.55 in 10.0 mi South 10.4 mph - 0.00 in Rain Light Rain
11:53 PM 48.9 °F - 46.0 °F 90% 29.53 in 10.0 mi South 5.8 mph - 0.00 in Rain Light Rain